Weather History for Mount Ida, AR

Change the Weather History Date:

Friday, March 22, 2013

  Actual Average (KHOT) Record (KHOT)
Temperature  
Mean Temperature 40 °F -  
Max Temperature 42 °F 65 °F 84 °F (1987)
Min Temperature 37 °F 42 °F 23 °F (1955)
Degree Days  
Heating Degree Days 26    
Moisture  
Dew Point 39 °F    
Average Humidity 96    
Maximum Humidity 100    
Minimum Humidity 87    
Precipitation  
Precipitation 0.29 in - - ()
Sea Level Pressure  
Sea Level Pressure 29.84 in    
Wind  
Wind Speed 4 mph (East)    
Max Wind Speed 8 mph    
Max Gust Speed -    
Visibility 5 miles    
Events Rain    
Averages and records for this station are not official NWS values.
T = Trace of Precipitation, MM = Missing Value Source: NWS Daily Summary

Daily Weather History Graph

Daily Weather History Graph

Search for Another Location

Airport:

Trip Planner

Search our weather history database for the weather conditions in past years. The results will help you decide how hot, cold, wet, or windy it might be!

Date:

Astronomy

Mar. 22, 2013 Rise Set
Actual Time 7:14 AM CDT 7:27 PM CDT
Civil Twilight 6:49 AM CDT 7:52 PM CDT
Nautical Twilight 6:20 AM CDT 8:22 PM CDT
Astronomical Twilight 5:50 AM CDT 8:52 PM CDT
Moon 3:05 PM CDT (3/22) 4:05 AM CDT (3/22)
Length of Visible Light 13h 03m
Length of Day
12h 12m
Waxing Gibbous, 77% of the Moon is Illuminated
Mar 22
Waxing Gibbous
Mar 27
Full
Apr 2
Last Quarter
Apr 10
New
Apr 18
First Quarter

Hourly Weather History & Observations

Time (CDT) Temp. Windchill Dew Point Humidity Pressure Visibility Wind Dir Wind Speed Gust Speed Precip Events Conditions
12:48 AM 37.4 °F 33.8 °F 35.6 °F 93% 29.79 in 4.0 mi East 4.6 mph - 0.03 in Rain Rain
12:53 AM 37.0 °F 33.3 °F 35.1 °F 93% 29.82 in 5.0 mi Variable 4.6 mph - 0.04 in Rain Light Rain
1:53 AM 37.0 °F 32.4 °F 36.0 °F 96% 29.82 in 8.0 mi ESE 5.8 mph - 0.04 in   Overcast
2:05 AM 37.4 °F 32.1 °F 35.6 °F 93% 29.81 in 8.0 mi ESE 6.9 mph - 0.00 in Rain Light Rain
2:53 AM 37.0 °F 31.0 °F 36.0 °F 96% 29.81 in 6.0 mi East 8.1 mph - 0.10 in Rain Light Rain
3:53 AM 37.9 °F 32.7 °F 37.0 °F 97% 29.82 in 9.0 mi East 6.9 mph - 0.01 in   Overcast
4:53 AM 37.9 °F 33.5 °F 37.0 °F 97% 29.80 in 10.0 mi East 5.8 mph - N/A   Overcast
5:18 AM 37.4 °F 33.8 °F 37.4 °F 100% 29.77 in 10.0 mi Variable 4.6 mph - N/A   Overcast
5:53 AM 39.0 °F 34.8 °F 37.0 °F 93% 29.81 in 10.0 mi Variable 5.8 mph - N/A   Overcast
6:53 AM 39.0 °F 34.8 °F 37.0 °F 93% 29.82 in 5.0 mi East 5.8 mph - 0.01 in Rain Light Rain
7:53 AM 37.9 °F 33.5 °F 37.0 °F 97% 29.89 in 4.0 mi Variable 5.8 mph - 0.03 in Rain Light Rain
8:07 AM 37.4 °F 32.8 °F 37.4 °F 100% 29.86 in 2.5 mi Variable 5.8 mph - 0.01 in Rain Light Rain
8:35 AM 37.4 °F 34.9 °F 37.4 °F 100% 29.86 in 2.0 mi Variable 3.5 mph - 0.02 in   Overcast
8:53 AM 37.0 °F - 37.0 °F 100% 29.90 in 2.5 mi Calm Calm - 0.02 in   Overcast
9:16 AM 37.4 °F 33.8 °F 35.6 °F 93% 29.86 in 3.0 mi Variable 4.6 mph - 0.01 in   Overcast
9:23 AM 37.4 °F 33.8 °F 37.4 °F 100% 29.86 in 2.5 mi Variable 4.6 mph - 0.01 in Rain Light Rain
9:31 AM 37.4 °F - 37.4 °F 100% 29.86 in 3.0 mi Calm Calm - 0.01 in Rain Light Rain
9:53 AM 37.9 °F 35.5 °F 37.0 °F 97% 29.88 in 5.0 mi East 3.5 mph - 0.01 in   Overcast
10:46 AM 39.2 °F 37.0 °F 39.2 °F 100% 29.85 in 10.0 mi SE 3.5 mph - 0.00 in   Overcast
10:53 AM 39.9 °F - 39.0 °F 97% 29.88 in 10.0 mi Calm Calm - 0.00 in   Overcast
11:06 AM 39.2 °F - 39.2 °F 100% 29.86 in 10.0 mi Calm Calm - N/A   Overcast
11:31 AM 39.2 °F 37.0 °F 39.2 °F 100% 29.86 in 6.0 mi North 3.5 mph - 0.00 in Rain Light Rain
11:53 AM 39.9 °F - 39.0 °F 97% 29.88 in 4.0 mi Calm Calm - 0.00 in Rain Light Rain
12:35 PM 41.0 °F - 39.2 °F 93% 29.84 in 2.5 mi Calm Calm - N/A   Overcast
12:49 PM 42.8 °F 41.1 °F 39.2 °F 87% 29.83 in 3.0 mi ENE 3.5 mph - N/A   Overcast
12:53 PM 42.1 °F 40.2 °F 39.9 °F 92% 29.85 in 2.5 mi Variable 3.5 mph - N/A   Overcast
1:19 PM 42.8 °F 41.1 °F 41.0 °F 93% 29.82 in 1.8 mi Variable 3.5 mph - N/A   Overcast
1:53 PM 42.1 °F - 41.0 °F 96% 29.85 in 1.2 mi Calm Calm - N/A   Overcast
2:53 PM 42.1 °F - 39.9 °F 92% 29.84 in 1.8 mi Calm Calm - 0.01 in   Overcast
3:01 PM 41.0 °F 39.0 °F 39.2 °F 93% 29.81 in 2.0 mi Variable 3.5 mph - N/A   Overcast
3:32 PM 42.8 °F - 41.0 °F 93% 29.81 in 2.0 mi Calm Calm - N/A   Overcast
3:53 PM 42.1 °F - 41.0 °F 96% 29.83 in 2.5 mi Calm Calm - 0.01 in Rain Light Rain
4:03 PM 42.8 °F - 41.0 °F 93% 29.81 in 3.0 mi Calm Calm - 0.00 in   Overcast
4:36 PM 42.8 °F 40.1 °F 39.2 °F 87% 29.82 in 2.5 mi Variable 4.6 mph - 0.00 in Rain Light Rain
4:48 PM 42.8 °F 41.1 °F 41.0 °F 93% 29.82 in 3.0 mi Variable 3.5 mph - 0.01 in Rain Light Rain
4:53 PM 42.1 °F - 41.0 °F 96% 29.85 in 3.0 mi Calm Calm - 0.01 in   Overcast
5:08 PM 41.0 °F - 39.2 °F 93% 29.82 in 3.0 mi Calm Calm - N/A   Overcast
5:26 PM 41.0 °F - 41.0 °F 100% 29.82 in 3.0 mi Calm Calm - N/A   Overcast
5:53 PM 41.0 °F - 41.0 °F 100% 29.85 in 3.0 mi Calm Calm - N/A   Overcast
6:48 PM 41.0 °F - 39.2 °F 93% 29.84 in 2.5 mi Calm Calm - N/A   Overcast
6:53 PM 41.0 °F - 39.9 °F 96% 29.86 in 2.5 mi Calm Calm - N/A   Overcast
7:16 PM 41.0 °F - 39.2 °F 93% 29.86 in 3.0 mi Calm Calm - N/A   Overcast
7:53 PM 41.0 °F 39.0 °F 39.9 °F 96% 29.88 in 4.0 mi Variable 3.5 mph - N/A   Overcast
8:53 PM 39.9 °F 37.8 °F 39.9 °F 100% 29.88 in 5.0 mi Variable 3.5 mph - N/A   Overcast
9:53 PM 41.0 °F - 39.9 °F 96% 29.88 in 10.0 mi Calm Calm - N/A   Overcast
10:07 PM 41.0 °F - 39.2 °F 93% 29.87 in 10.0 mi Calm Calm - N/A   Overcast
10:53 PM 41.0 °F 38.0 °F 39.9 °F 96% 29.88 in 10.0 mi East 4.6 mph - N/A   Overcast
11:53 PM 41.0 °F - 39.9 °F 96% 29.88 in 7.0 mi Calm Calm - N/A   Overcast